Regional Weather Roundup
Issued by NWS

Home | Current Version | Previous Version | Graphics & Text | Print | Product List | Glossary Off
Versions: 1 2 3 4 5 6 7 8 9 10 11 12 13 14 15 16 17 18 19 20 21 22 23 24 25 26 27 28 29 30 31 32 33 34 35 36 37 38 39 40 41 42 43 44 45 46 47 48 49 50

000
ASUS43 KTOP 042159
RWRKS

WEATHER ROUNDUP FOR KANSAS
NATIONAL WEATHER SERVICE GOODLAND KS
500 PM CDT MON MAY 04 2015

NOTE:  "FAIR" INDICATES FEW OR NO CLOUDS BELOW 12,000 FEET WITH NO
SIGNIFICANT WEATHER AND/OR OBSTRUCTIONS TO VISIBILITY.

KSZ001>006-013>018-027>032-041>047-042300-
NORTHWEST KANSAS

CITY           SKY/WX    TMP DP  RH WIND       PRES   REMARKS
GOODLAND       MOSUNNY   65  49  56 NE12G18   30.04F
HAYS           CLOUDY    64  55  72 N10       30.00R THUNDER
HILL CITY      MOSUNNY   72  57  59 N10       30.00F
RUSSELL        LGT RAIN  67  59  75 NE6       29.98S
$$

KSZ061>065-074>080-084>089-042300-
SOUTHWEST KANSAS

CITY           SKY/WX    TMP DP  RH WIND       PRES   REMARKS
DODGE CITY     SUNNY     82  47  29 SE15      29.93F
ELKHART          N/A     72  49  44 SE17        N/A
GARDEN CITY    CLOUDY    76  49  38 S20       29.92F
GREAT BEND     CLOUDY    70  57  64 N16       29.95F
LIBERAL        MOSUNNY   79  54  41 SE12G18   29.93F
$$

KSZ066>073-081>083-090>101-042300-
SOUTHEAST KANSAS

CITY           SKY/WX    TMP DP  RH WIND       PRES   REMARKS
CHANUTE        MOSUNNY   81  61  50 S20       30.00F
COFFEYVILLE    MOSUNNY   82  60  47 S18G26    30.01F
HUTCHINSON     PTSUNNY   80  61  52 S20       29.94F
MEDICINE LODGE   N/A     78  64  61 S16G23    29.93F
NEWTON         PTSUNNY   79  61  53 S18G26    29.97F
PARSONS        MOSUNNY   83  61  47 S13G22    30.03F
WICHITA INTL   PTSUNNY   84  60  44 S22G29    29.94F
WICHITA JABRA  PTSUNNY   81  60  48 S22G28    29.95F
WINFIELD       PTSUNNY   82  62  50 S22G28    29.98F
$$

KSZ007>012-019>026-033>040-048>060-102>105-042300-
NORTHEAST KANSAS

CITY           SKY/WX    TMP DP  RH WIND       PRES   REMARKS
CONCORDIA      LGT RAIN  72  57  59 NE9       29.96F
EMPORIA        PTSUNNY   80  61  52 S21G31    29.95F
LAWRENCE       PTSUNNY   83  59  44 S17G23    29.95F
MANHATTAN      TSTM      65  60  84 NW15G24   29.95R
OLATHE IND     PTSUNNY   81  60  48 S18       29.98F
OLATHE EXE     PTSUNNY   80  62  54 S17       29.97F
SALINA         CLOUDY    81  63  54 SW10      29.92F
TOPEKA BILLARD PTSUNNY   85  60  42 S10G23    29.94F
TOPEKA FORBES  PTSUNNY   84  60  44 S18G26    29.94F
$$



USA.gov is the U.S. government's official web portal to all federal, state and local government web resources and services.